Regional Weather Roundup
Issued by NWS

Home | Current Version | Previous Version | Text Only | Print | Product List | Glossary Off
Versions: 1 2 3 4 5 6 7 8 9 10 11 12 13 14 15 16 17 18 19 20 21 22 23 24 25 26 27 28 29 30 31 32 33 34 35 36 37 38 39 40 41 42 43 44 45 46 47 48 49 50

246
ASUS43 KLOT 082008
RWRIL

ILLINOIS REGIONAL WEATHER ROUNDUP
NATIONAL WEATHER SERVICE CHICAGO/ROMEOVILLE IL
200 PM CST MON FEB 08 2016

NOTE: "FAIR" INDICATES FEW OR NO CLOUDS BELOW 12,000 FEET WITH NO
SIGNIFICANT WEATHER AND/OR OBSTRUCTIONS TO VISIBILITY.

* THESE STATIONS ARE NOT UNDER NWS QUALITY CONTROL. THEY ALSO MAY NOT
  REPORT WEATHER SUCH AS PRECIPITATION OR FOG.

ILZ001-002-007-009-015-016-024-082100-
NORTHWEST ILLINOIS

CITY           SKY/WX    TMP DP  RH WIND       PRES   REMARKS
MOLINE         LGT SNOW  21  13  71 NW22G28   29.81R WCI   5
STERLING*      CLOUDY    23  14  68 W14       29.73S WCI  11
SAVANNA*       CLOUDY    24  15  68 NW14G20   29.77S WCI  11
$$

ILZ003-004-008-010-011-017-018-082100-
NORTH CENTRAL ILLINOIS

CITY           SKY/WX    TMP DP  RH WIND       PRES   REMARKS
ROCKFORD       CLOUDY    26  18  71 NW16      29.73R WCI  14
FREEPORT*      CLOUDY    23  16  74 W14G20    29.74S WCI  11
ROCHELLE*      CLOUDY    24  19  78 W16G22    29.72S WCI  11
DE KALB*       CLOUDY    26  21  79 NW15G21   29.70R WCI  14
$$

ILZ005-006-012>014-019>023-082100-
NORTHEAST ILLINOIS

CITY           SKY/WX    TMP DP  RH WIND       PRES   REMARKS
CHICAGO-OHARE  FLURRIES  27  22  81 W15       29.66S WCI  15
CHICAGO-MIDWAY CLOUDY    29  21  72 NW13      29.68R WCI  19
AURORA         CLOUDY    27  21  78 NW16      29.70R WCI  15
LANSING*       CLOUDY    29  23  76 W13G20    29.68R WCI  19
JOLIET*        CLOUDY    28  21  74 W12       29.71R WCI  18
WAUKEGAN       CLOUDY    27  20  75 NW10      29.65R WCI  17
DUPAGE AIRPORT CLOUDY    26  20  77 NW14      29.68R WCI  14
KANKAKEE*      CLOUDY    27  19  73 W13G20    29.72R WCI  16
WHEELING       CLOUDY    28  22  78 NW8       29.68R WCI  20
MORRIS*        CLOUDY    27  19  73 NW13      29.69R WCI  16
ROMEOVILLE*    CLOUDY    27  21  77 W15       29.69S WCI  16
NORTHERLY ISL    N/A     29  23  78 W14         N/A  WCI  18
$$

LMZ740>746-082100-
SOUTHERN LAKE MICHIGAN

STATION/POSITION SKY/WX   TEMP    WIND        PRES    VSBY  WAVE
                          AIR SEA DIR/SP/G                  HT/PER
                          (F)     (DEG/KT/KT) (MB)    (MI)  (FT/S)
HARRISON CRIB              30     270/ 17/ 18   N/A
BURNHAM HARBOR             29     300/  9/ 14   N/A
CALUMET HARBOR             30     240/  8/ 13 1003.8F
BURNS HARBOR               31     270/ 13/ 16 1004.7F
MICHIGAN CITY              30     240/ 17/ 18   N/A
$$

ILZ025>027-034>036-040-047-049-050-058-095>099-082100-
WEST-CENTRAL ILLINOIS

CITY           SKY/WX    TMP DP  RH WIND       PRES   REMARKS
QUINCY         LGT SNOW  20  12  71 NW24      29.88S WCI   3
GALESBURG*     LGT SNOW  20  15  79 NW21G28   29.81S WCI   4
MACOMB*        CLOUDY    20  15  79 NW24G33   29.86R WCI   3
JACKSONVILLE*  FLURRIES  23  15  71 W22G30    29.86R WCI   8
PITTSFIELD*    LGT SNOW  22  14  72 W17G24    29.89R WCI   7
$$

ILZ028>032-037-038-041>044-048-051>054-059>061-082100-
CENTRAL ILLINOIS

CITY           SKY/WX    TMP DP  RH WIND       PRES   REMARKS
PONTIAC        LGT SNOW  25  20  82 W17       29.75R WCI  11
BLOOMINGTON    LGT SNOW  22  19  88 W18       29.77R FOG     WCI   8
DECATUR        LGT SNOW  22  15  75 NW18G25   29.79R WCI   7
PEORIA         LGT SNOW  21  13  71 NW18G26   29.81R WCI   6
LACON*         FLURRIES  22  15  73 NW15G21   29.78R WCI   9
LINCOLN*       LGT SNOW  22  18  81 W9G18     29.81R WCI  12
SPRINGFIELD    LGT SNOW  23  15  71 W13G25    29.83R WCI  11
TAYLORVILLE    LGT SNOW  23  18  80 W18G26    29.83R WCI   9
$$

ILZ033-039-045-046-055>057-062-063-082100-
EAST-CENTRAL ILLINOIS

CITY           SKY/WX    TMP DP  RH WIND       PRES   REMARKS
CHAMPAIGN      LGT SNOW  24  17  74 W21       29.76R WCI   9
RANTOUL*       LGT SNOW  25  19  80 W15       29.75R WCI  12
MATTOON        LGT SNOW  23  19  85 NW16      29.77S VSB 3/4 WCI  10
PARIS*         CLOUDY    26  19  77 W21       29.77R WCI  11
$$

ILZ079-100>102-082100-
SOUTHWEST ILLINOIS

CITY           SKY/WX    TMP DP  RH WIND       PRES   REMARKS
ALTON          FLURRIES  23  14  68 W23       29.88R WCI   7
BELLEVILLE     FLURRIES  27  12  54 NW23G33   29.86R WCI  12
CAHOKIA*       CLOUDY    27  12  53 NW22G31   29.89S WCI  13
SPARTA*        FLURRIES  28  16  60 W15G24    29.88R WCI  17
$$

ILZ064>066-069>071-074>076-080>082-084>086-088>090-092>094-082100-
SOUTH-CENTRAL ILLINOIS

CITY           SKY/WX    TMP DP  RH WIND       PRES   REMARKS
CARBONDALE     FLURRIES  29  18  63 NW20G28   29.87R WCI  16
CAIRO*         CLOUDY    35  21  57 W18G28    29.87R WCI  24
EFFINGHAM*     LGT SNOW  26  22  85 W20G25    29.82R WCI  12
MARION         FLURRIES  30  19  64 NW21      29.85S WCI  17
MT. VERNON     CLOUDY    30  16  55 W12G22    29.83S WCI  21
CENTRALIA*     LGT SNOW  28  23  82 W20       29.83R WCI  15
SALEM*         CLOUDY    29  18  65 NW20G28   29.83R WCI  16
METROPOLIS*    CLOUDY    35  22  59 W12G17    29.86R WCI  27
$$

ILZ067-068-072-073-078-083-087-091-082100-
SOUTHEAST ILLINOIS

CITY           SKY/WX    TMP DP  RH WIND       PRES   REMARKS
LAWRENCEVILLE  LGT SNOW  29  23  78 NW18      29.79R WCI  16
FLORA*         CLOUDY    30  19  63 W17G26    29.82R WCI  18
FAIRFIELD*     CLOUDY    30  19  62 W14G22    29.81S WCI  20
HARRISBURG*    CLOUDY    32  21  65 W20       29.84S WCI  20
ROBINSON*      FLURRIES  27  22  80 NW14G20   29.79S WCI  16
CARMI*         CLOUDY    30  25  83 NW18      29.82R WCI  18
$$

ABBREVIATIONS USED IN REMARKS
   TC - TEMPERATURE IN CELSIUS
  WCI - WIND CHILL INDEX
   HX - HEAT INDEX
  VSB - VISIBILITY
$$





USA.gov is the U.S. government's official web portal to all federal, state and local government web resources and services.